Location: Koszewko
(53.2876°N, 14.9061°E)
Time: 21:37:19
(UTC+00:00)

Gbstr 26 Del rocket - Pass Details

Date: 03 March 2021
Orbit: 492 x 1264 km, 51.8° (Epoch: 12 April)

Event Time Altitude Azimuth Distance (km) Brightness Sun altitude
Rises 19:55:06 0° 279° (W) 2,963 7.6 -28.6°
Reaches altitude 10° 19:57:14 10° 276° (W) 2,148 6.6 -28.8°
Enters shadow 20:01:08 53° 244° (WSW) 959 4.0 -29.3°
